Location: McFarlands Corners
(41.4117°N, 81.3382°W)
Time: 19:45:06
(UTC+00:00)

BlueWalker 3 - Pass Details

Date: 22 January 2026
Orbit: 450 x 461 km, 53.2° (Epoch: 11 February)

Event Time Altitude Azimuth Distance (km) Brightness Sun altitude
Rises 01:12:06 0° 264° (W) 2,450 6.6 -30.5°
Reaches altitude 10° 01:14:30 10° 278° (W) 1,579 5.3 -31.0°
Enters shadow 01:15:19 15° 288° (WNW) 1,320 4.8 -31.1°
